Location: Unspecified
(0.0000°N, 0.0000°E)
Time: 12:35:38
(UTC+01:00)

Milstar 3 - Visible Passes

Search period start: 25 March 2017 00:00
Search period end: 04 April 2017 01:00
Orbit: 1097 x 5148 km, 28.2° (Epoch: 10 January)

Date Brightness Start Highest point End Pass type
(mag) Time Alt. Az. Time Alt. Az. Time Alt. Az.
25 Mar 5.9 03:24:43 22° N 03:28:37 24° NNE 03:46:16 10° ENE visible
25 Mar 6.2 06:02:56 10° NW 06:24:57 49° NNE 06:55:59 10° E visible
25 Mar 2.6 20:42:14 10° SW 20:49:22 74° SSE 20:50:43 57° E visible
26 Mar 6.1 03:26:46 18° NNE 03:26:46 18° NNE 03:35:33 10° NE visible
26 Mar 6.1 06:00:34 10° NW 06:18:23 38° NNE 06:46:20 10° E visible
26 Mar 3.3 20:40:08 10° SW 20:47:50 46° SSE 20:53:10 15° E visible
26 Mar 5.0 23:25:25 10° W 23:26:47 16° W 23:26:47 16° W visible
27 Mar 5.9 05:02:24 19° NNW 05:12:24 29° NNE 05:34:51 10° ENE visible
27 Mar 6.3 07:43:40 10° NW 08:08:03 64° NNE 08:40:29 10° ESE visible
27 Mar 3.2 22:23:04 10° WSW 22:29:16 54° NW 22:29:16 54° NW visible
28 Mar 5.9 04:04:30 21° N 04:07:01 22° NNE 04:22:48 10° ENE visible
28 Mar 6.1 06:41:06 10° NW 07:01:31 51° NNE 07:32:38 10° E visible
28 Mar 2.7 21:20:41 10° WSW 21:28:20 89° SSE 21:31:45 31° ENE visible
29 Mar 6.2 03:06:37 15° NNE 03:06:37 15° NNE 03:12:03 10° NE visible
29 Mar 6.0 05:40:11 13° NW 05:55:37 39° NNE 06:22:49 10° E visible
29 Mar 3.2 20:18:03 10° SW 20:26:49 57° SSE 20:33:17 10° ENE visible
29 Mar 4.6 23:04:46 10° W 23:07:52 23° WNW 23:07:52 23° WNW visible
30 Mar 5.8 04:42:20 21° NNW 04:50:17 29° NNE 05:11:24 10° E visible
30 Mar 6.2 07:21:37 10° NW 07:44:10 67° NNE 08:17:06 10° ESE visible
30 Mar 3.5 22:01:56 10° WSW 22:08:42 45° NNW 22:10:23 38° N visible
31 Mar 5.9 03:44:32 21° NNE 03:45:29 21° NNE 03:59:31 10° ENE visible
31 Mar 6.0 06:19:24 10° NW 06:38:11 53° NNE 07:09:00 10° ESE visible
31 Mar 3.0 20:59:01 10° WSW 21:07:17 76° NNW 21:12:55 15° NE visible
01 Apr 6.3 02:46:45 12° NE 02:46:45 12° NE 02:48:49 10° NE visible
01 Apr 5.8 05:20:20 18° NNW 05:32:55 40° NNE 05:59:10 10° E visible
01 Apr 4.4 22:44:08 10° WNW 22:49:04 23° NNW 22:49:04 23° NNW visible
02 Apr 5.7 04:22:35 24° N 04:28:14 29° NNE 04:47:58 10° E visible
02 Apr 6.0 06:59:45 10° NW 07:20:26 71° NNE 07:53:24 10° ESE visible
02 Apr 3.9 21:40:43 10° W 21:47:37 38° NNW 21:51:35 20° NNE visible
03 Apr 5.9 03:24:53 20° NNE 03:24:53 20° NNE 03:36:27 10° ENE visible
03 Apr 5.9 05:58:29 12° NW 06:15:00 56° NNE 06:45:08 10° ESE visible
03 Apr 3.4 20:37:12 10° WSW 20:46:09 64° NNW 20:52:42 10° NE visible
